Wind_Speed
24 25 26 26 26 26 26 25 25 25 25 25 24 24 24 24 23 24 25 26 27 28 29 30 31 31 31 31 32 33 35 35 36 36 37 37 37 37 37 37 37 38 38
24 24 25 25 26 26 25 25 25 25 24 24 24 24 24 24 24 24 24 25 26 27 28 29 29 29 29 29 30 32 33 33 34 34 34 35 35 35 35 35 36 37 37
24 24 25 25 26 26 25 25 24 24 24 24 23 23 23 23 23 24 25 25 25 26 26 27 27 27 27 28 29 29 30 31 31 31 32 32 33 33 34 34 34 34 34
22 23 23 24 24 25 25 25 24 24 24 24 23 23 23 23 24 24 24 25 25 25 25 25 25 26 27 27 27 27 27 28 28 29 29 30 31 31 31 31 30 30 31
21 22 22 22 23 23 23 23 23 23 22 22 23 23 23 23 22 22 22 23 23 23 24 24 25 25 25 25 25 25 25 26 27 27 28 28 28 28 28 28 28 28 28
20 20 21 21 21 21 21 21 20 20 20 21 21 21 21 21 21 21 21 22 22 23 23 23 23 22 22 22 23 23 24 25 26 26 26 26 26 26 26 25 25 25 24
16 17 17 17 17 17 17 18 18 18 19 19 20 19 19 20 19 19 20 20 21 22 22 21 20 20 21 21 22 22 23 24 24 24 24 24 24 24 24 23 22 22 22
13 13 12 13 12 13 14 14 14 15 15 16 17 17 17 18 18 19 19 19 19 19 19 19 20 20 20 21 21 22 22 22 22 22 22 22 22 22 21 20 20 20 19
11 11 10 11 11 11 12 12 12 12 12 13 14 15 16 16 18 18 18 17 18 18 18 18 19 19 19 20 20 20 20 20 20 19 19 19 19 19 18 17 17 16 16
9 9 9 9 9 9 9 9 9 10 10 11 12 13 13 14 15 15 15 15 15 16 17 18 18 18 18 18 18 18 18 17 17 17 18 18 17 17 15 15 14 14 13
6 7 7 7 7 7 6 7 7 8 9 10 11 12 12 12 13 13 13 14 14 15 15 15 16 16 16 16 16 16 16 16 15 16 16 15 15 14 13 12 12 12 11
5 6 6 5 5 5 5 6 6 7 8 8 9 10 10 11 11 12 13 13 13 13 13 14 14 15 15 15 14 14 14 14 14 14 13 13 12 11 10 10 10 9 9
3 3 3 4 4 5 5 5 6 6 6 7 8 8 9 9 10 10 10 11 11 12 12 12 12 12 12 13 13 13 13 13 12 12 11 11 10 9 9 9 8 8 8
3 3 3 3 3 3 3 3 4 4 5 6 6 7 7 7 7 8 8 9 10 10 11 11 11 11 11 11 11 11 11 11 10 10 9 9 8 7 7 7 7 6 6
3 3 3 3 3 3 3 3 3 4 4 4 4 5 5 6 6 6 6 7 8 8 9 9 9 9 10 10 9 9 9 9 8 8 7 7 6 6 6 5 5 5 5
4 4 3 3 3 3 3 3 3 3 3 3 4 4 4 4 5 5 5 6 6 6 6 7 7 8 8 7 7 7 7 6 6 6 5 5 4 4 4 4 3 3 3
6 5 5 4 5 4 4 4 4 4 4 4 4 4 4 4 4 4 4 5 5 5 4 4 5 5 5 4 4 5 4 4 4 3 3 2 2 2 2 2 2 2 2
8 8 7 7 7 7 6 6 6 6 6 6 6 6 6 6 5 5 5 5 4 4 3 3 3 3 3 3 3 3 3 2 1 1 1 1 0 0 0 1 1 1 2
11 10 10 10 10 10 9 9 9 8 8 8 8 8 8 8 7 7 6 6 5 5 4 4 3 3 3 3 3 2 2 1 0 0 1 1 1 1 1 1 1 2 2
12 12 12 13 13 13 12 12 11 11 11 10 10 9 9 9 9 9 8 7 7 6 6 5 5 4 4 4 3 3 2 2 2 2 2 2 2 2 2 2 2 2 3
14 14 14 14 14 14 14 14 14 13 13 12 12 12 11 11 11 10 10 10 9 8 8 7 7 6 6 6 5 5 4 4 4 3 3 3 2 2 2 2 2 3 4
16 16 16 16 16 16 16 16 16 15 15 14 13 13 13 13 12 12 12 12 11 11 10 10 9 9 8 8 7 6 6 5 5 4 4 3 3 2 2 3 3 4 4
18 18 18 17 17 17 17 17 17 16 16 15 15 15 15 15 14 14 14 14 14 13 13 12 11 11 10 9 8 8 7 6 6 5 4 3 3 3 3 4 4 4 5
18 18 18 18 18 18 18 17 17 17 16 17 17 16 16 16 16 16 15 15 15 14 14 13 13 12 11 10 9 9 8 7 6 5 4 4 4 4 4 5 5 5 6
17 17 17 17 17 17 17 17 17 16 16 17 17 16 16 16 16 16 16 15 15 14 14 14 13 13 12 11 10 9 8 7 7 6 5 5 5 5 5 6 6 6 7
16 16 16 17 17 17 17 16 16 16 16 16 16 16 16 15 15 15 15 15 14 14 13 12 12 12 11 10 10 9 8 8 7 7 6 6 6 6 7 7 7 8 9
Wind_Direction
274 271 271 270 270 269 267 265 264 266 265 265 266 265 263 263 265 265 265 264 264 265 265 266 266 266 265 267 269 270 271 272 274 274 275 276 277 279 281 283 285 287 288
277 273 272 271 270 269 267 265 264 264 264 263 263 264 263 263 265 266 266 266 267 266 268 268 267 268 269 270 270 271 272 272 272 273 275 277 279 280 282 284 286 288 288
281 277 274 272 271 268 265 264 264 264 265 264 264 263 262 263 265 266 265 267 268 267 268 267 267 270 270 269 271 271 271 271 272 274 277 279 280 282 284 285 286 288 289
282 279 276 272 269 266 263 263 263 262 262 263 262 260 260 264 265 263 264 265 266 266 267 267 269 271 270 271 271 273 274 274 276 278 279 280 281 282 284 285 287 288 289
283 281 278 275 271 266 264 263 262 260 259 260 259 259 260 262 263 261 261 263 265 266 267 268 268 270 272 272 273 275 276 277 280 281 281 281 282 283 284 285 286 288 289
283 281 278 275 271 265 263 261 259 256 255 256 258 258 259 260 260 259 259 261 264 266 267 268 269 270 272 273 275 276 277 278 279 280 280 280 282 284 285 284 286 287 289
288 285 281 275 271 267 264 261 257 255 256 256 258 258 259 256 256 259 261 261 264 265 266 267 268 271 274 275 275 277 278 279 279 279 280 281 281 283 284 283 284 286 288
290 286 283 278 273 271 265 262 257 255 256 253 253 255 254 252 256 258 258 258 261 262 264 267 270 274 275 275 276 277 278 279 280 281 281 282 282 283 282 282 283 285 288
287 287 282 279 273 268 266 263 258 254 254 253 255 258 256 256 258 256 255 257 259 262 266 269 272 274 274 276 277 278 279 281 281 281 281 282 282 282 281 281 283 286 288
287 286 282 281 273 269 264 262 257 256 256 256 259 261 259 259 258 258 260 263 266 267 268 270 272 274 275 277 278 280 281 281 281 280 282 282 282 282 281 282 284 286 290
286 286 285 279 276 272 266 264 263 260 258 256 261 263 263 261 262 264 266 268 270 269 271 272 273 273 276 278 280 280 280 281 280 281 282 282 283 281 280 282 285 288 291
294 289 289 287 286 283 275 271 270 269 264 262 263 267 270 270 271 270 269 270 271 273 273 275 275 276 278 280 281 281 281 283 285 284 283 283 283 281 280 283 286 289 293
324 317 303 297 295 298 292 283 276 275 271 272 272 275 275 275 275 272 272 274 276 276 276 276 277 278 280 281 281 281 282 284 285 284 282 280 278 276 278 282 283 287 291
358 350 343 332 327 324 315 304 290 289 288 288 286 287 285 282 283 282 281 278 277 279 280 279 278 280 280 280 282 283 284 282 281 282 282 280 276 276 279 279 281 286 292
14 10 4 0 357 343 331 327 318 311 313 306 307 307 299 294 293 292 288 286 285 286 283 278 282 284 283 283 283 285 284 281 281 281 280 277 274 276 277 277 284 288 295
26 22 16 19 18 11 1 351 345 344 347 348 343 336 329 320 313 313 308 308 308 300 293 285 284 287 288 287 286 284 281 281 282 279 275 271 272 274 276 283 288 292 301
42 41 39 41 40 38 38 41 42 42 37 27 20 16 8 358 349 346 340 334 332 327 316 306 302 303 301 297 294 290 286 285 283 274 265 259 268 278 278 284 289 299 311
60 58 57 57 56 56 59 60 57 53 50 47 43 38 32 26 22 20 13 8 6 4 360 352 342 333 326 321 316 312 308 300 294 278 249 239 259 284 316 327 332 342 346
65 63 62 62 64 64 65 65 64 61 57 54 51 46 41 39 38 35 31 31 31 30 27 21 14 7 358 352 350 351 1 18 64 121 128 119 105 101 82 57 41 21 3
67 66 67 69 69 68 68 67 66 63 60 57 54 52 50 49 47 46 46 45 43 41 38 34 31 28 26 26 28 37 56 73 85 92 93 93 92 90 78 61 41 15 2
72 72 72 72 71 69 68 66 65 64 62 60 58 56 54 53 52 52 50 49 47 46 44 43 44 45 46 49 53 61 71 76 78 78 80 87 87 77 64 44 20 6 359
74 74 74 73 72 71 69 66 65 64 63 62 60 59 58 57 56 55 54 53 53 53 54 54 55 56 58 60 62 65 68 68 68 70 75 81 72 53 35 17 6 358 352
74 73 74 73 72 70 69 67 66 66 65 64 63 63 62 60 60 59 58 57 57 58 59 59 59 59 59 61 63 64 65 65 66 68 68 61 46 27 11 1 354 350 345
74 73 73 72 71 69 68 67 67 66 65 65 64 63 62 61 60 59 58 57 57 57 58 59 59 59 59 61 63 62 61 61 58 55 49 39 27 15 4 356 350 343 338
72 71 70 69 69 69 68 67 67 66 66 64 63 62 61 59 58 57 56 56 55 55 55 56 56 56 57 57 56 55 52 50 46 40 33 24 14 5 357 351 346 340 335
69 68 68 68 67 66 66 66 65 64 63 62 61 59 57 56 54 54 53 53 52 51 51 50 50 50 49 48 47 46 43 39 32 24 16 7 359 352 348 344 339 334 331
Height
5750 5750 5751 5751 5751 5751 5751 5752 5753 5754 5754 5755 5755 5756 5756 5757 5757 5758 5758 5759 5759 5759 5760 5760 5760 5761 5761 5761 5761 5761 5761 5761 5760 5759 5758 5757 5756 5754 5752 5751 5748 5746 5744
5743 5743 5743 5743 5743 5743 5743 5744 5745 5746 5747 5747 5748 5748 5749 5750 5750 5750 5751 5751 5751 5752 5752 5752 5752 5752 5752 5752 5752 5752 5752 5751 5751 5750 5749 5748 5746 5745 5743 5741 5739 5736 5733
5736 5735 5735 5735 5735 5735 5735 5736 5737 5738 5739 5740 5740 5741 5742 5742 5742 5743 5743 5743 5744 5744 5744 5744 5744 5744 5744 5744 5744 5743 5743 5743 5742 5741 5740 5738 5737 5735 5733 5731 5729 5727 5724
5729 5728 5728 5727 5727 5727 5727 5728 5729 5730 5731 5732 5733 5734 5734 5735 5735 5735 5736 5736 5736 5737 5737 5737 5737 5737 5736 5736 5736 5735 5735 5734 5733 5732 5731 5729 5728 5726 5725 5723 5721 5718 5716
5722 5721 5720 5720 5719 5719 5720 5720 5721 5722 5723 5724 5725 5726 5727 5727 5728 5728 5729 5729 5729 5729 5730 5730 5729 5729 5729 5729 5728 5728 5727 5726 5725 5724 5722 5721 5719 5718 5716 5714 5713 5711 5708
5715 5714 5713 5713 5712 5712 5713 5713 5714 5715 5716 5717 5718 5719 5720 5720 5721 5721 5722 5722 5722 5723 5723 5723 5723 5722 5722 5722 5721 5720 5720 5719 5717 5716 5714 5713 5712 5710 5708 5707 5705 5703 5701
5709 5708 5707 5706 5706 5706 5706 5707 5708 5709 5709 5710 5711 5712 5713 5713 5714 5715 5715 5715 5716 5716 5716 5716 5716 5716 5715 5715 5714 5713 5712 5711 5710 5708 5707 5706 5704 5703 5701 5700 5698 5696 5695
5704 5703 5702 5701 5701 5701 5701 5702 5702 5703 5703 5704 5705 5706 5707 5707 5708 5708 5709 5709 5709 5710 5710 5710 5709 5709 5709 5708 5707 5706 5705 5704 5702 5701 5700 5698 5697 5695 5694 5693 5692 5690 5689
5700 5699 5698 5698 5697 5697 5697 5697 5698 5698 5699 5699 5700 5701 5701 5702 5702 5702 5703 5703 5703 5703 5703 5703 5703 5703 5702 5701 5700 5699 5698 5697 5695 5694 5693 5692 5690 5689 5688 5687 5686 5685 5684
5696 5695 5695 5694 5694 5694 5694 5694 5694 5695 5695 5695 5696 5696 5696 5697 5697 5697 5697 5698 5698 5698 5698 5697 5697 5697 5696 5695 5694 5693 5692 5691 5690 5688 5687 5686 5685 5684 5683 5682 5681 5681 5679
5694 5693 5692 5692 5691 5691 5691 5691 5691 5691 5692 5692 5692 5692 5693 5693 5693 5693 5693 5693 5693 5693 5692 5692 5691 5691 5690 5689 5689 5688 5687 5686 5685 5684 5682 5681 5680 5680 5679 5678 5678 5677 5676
5692 5691 5690 5689 5689 5689 5689 5689 5689 5689 5689 5689 5689 5689 5689 5689 5689 5688 5688 5688 5688 5688 5687 5687 5686 5686 5685 5684 5684 5683 5682 5681 5680 5679 5678 5677 5677 5676 5675 5675 5674 5674 5673
5690 5689 5689 5688 5688 5687 5687 5686 5686 5686 5686 5686 5686 5686 5686 5685 5685 5684 5684 5684 5683 5683 5683 5682 5682 5681 5681 5680 5680 5679 5678 5677 5676 5675 5675 5674 5673 5673 5673 5672 5672 5671 5670
5689 5689 5688 5687 5687 5686 5685 5685 5685 5685 5684 5684 5684 5683 5683 5682 5682 5681 5681 5681 5680 5680 5679 5679 5678 5678 5677 5677 5676 5675 5674 5673 5673 5672 5671 5671 5671 5671 5670 5670 5669 5669 5668
5689 5688 5687 5687 5686 5685 5685 5684 5684 5683 5683 5682 5682 5681 5681 5680 5680 5679 5679 5678 5677 5676 5676 5675 5675 5675 5674 5673 5672 5672 5671 5671 5670 5670 5669 5669 5669 5668 5668 5668 5668 5667 5667
5689 5688 5687 5686 5686 5685 5684 5684 5683 5683 5682 5681 5681 5680 5679 5679 5678 5677 5677 5676 5675 5674 5673 5673 5673 5672 5671 5670 5670 5670 5669 5668 5668 5667 5667 5667 5667 5667 5667 5666 5666 5666 5665
5689 5688 5688 5687 5686 5685 5685 5684 5683 5683 5682 5681 5680 5680 5679 5678 5677 5676 5675 5674 5673 5672 5672 5671 5671 5670 5670 5669 5668 5668 5668 5667 5666 5666 5666 5666 5666 5666 5666 5666 5665 5665 5665
5691 5690 5689 5688 5687 5686 5685 5685 5684 5683 5683 5682 5681 5680 5679 5678 5677 5676 5675 5674 5673 5672 5671 5671 5670 5669 5669 5668 5668 5667 5666 5666 5666 5666 5666 5666 5665 5665 5666 5665 5665 5665 5664
5693 5692 5691 5690 5689 5688 5687 5686 5685 5685 5684 5683 5682 5681 5680 5679 5678 5677 5675 5674 5673 5672 5672 5671 5670 5669 5669 5668 5667 5667 5666 5666 5665 5665 5665 5665 5665 5665 5666 5665 5665 5665 5664
5696 5695 5694 5693 5692 5691 5690 5689 5688 5687 5686 5685 5684 5683 5682 5680 5679 5678 5677 5676 5675 5674 5673 5672 5671 5670 5669 5668 5668 5667 5666 5666 5666 5666 5666 5666 5666 5666 5666 5666 5665 5665 5664
5699 5698 5697 5696 5695 5694 5693 5692 5691 5690 5688 5687 5686 5685 5684 5683 5681 5680 5679 5677 5676 5675 5674 5673 5672 5671 5670 5669 5668 5668 5667 5667 5667 5667 5667 5667 5667 5667 5666 5666 5666 5665 5664
5703 5702 5701 5700 5699 5698 5697 5695 5694 5693 5692 5691 5689 5688 5687 5685 5684 5683 5681 5680 5679 5677 5676 5675 5674 5673 5672 5671 5670 5670 5669 5669 5668 5668 5668 5668 5668 5667 5667 5666 5666 5665 5664
5708 5707 5706 5705 5704 5702 5701 5700 5698 5697 5696 5695 5693 5692 5691 5689 5688 5686 5685 5683 5682 5680 5679 5678 5676 5675 5674 5673 5672 5672 5671 5671 5670 5670 5670 5669 5669 5668 5667 5667 5666 5665 5664
5713 5712 5711 5709 5708 5707 5706 5704 5703 5702 5701 5699 5698 5696 5695 5693 5692 5690 5689 5687 5685 5684 5682 5681 5680 5678 5677 5676 5675 5674 5674 5673 5672 5671 5671 5670 5669 5669 5668 5667 5666 5665 5663
5717 5717 5715 5714 5713 5711 5710 5709 5708 5706 5705 5704 5702 5701 5699 5698 5696 5694 5693 5691 5689 5688 5686 5685 5683 5682 5681 5679 5678 5677 5676 5675 5674 5673 5672 5671 5670 5669 5668 5667 5665 5664 5663
5722 5721 5720 5718 5717 5716 5715 5713 5712 5711 5709 5708 5706 5705 5703 5701 5700 5698 5696 5695 5693 5691 5690 5688 5687 5685 5684 5683 5681 5680 5679 5677 5676 5675 5674 5672 5671 5670 5668 5667 5665 5664 5662